TimeCDT,TemperatureF,Dew PointF,Humidity,Sea Level PressureIn,VisibilityMPH,Wind Direction,Wind SpeedMPH,Gust SpeedMPH,PrecipitationIn,Events,Conditions,WindDirDegrees,DateUTC
12:54 AM,73.9,64.9,73,30.02,10.0,SSE,6.9,-,N/A,,Mostly Cloudy,160,2013-10-03 05:54:00
1:54 AM,73.0,64.9,76,30.01,10.0,South,6.9,-,N/A,,Scattered Clouds,170,2013-10-03 06:54:00
2:54 AM,72.0,64.0,76,30.00,10.0,South,9.2,-,N/A,,Partly Cloudy,170,2013-10-03 07:54:00
3:54 AM,72.0,64.0,76,30.00,10.0,SSE,6.9,-,N/A,,Partly Cloudy,160,2013-10-03 08:54:00
4:54 AM,70.0,64.0,81,30.01,10.0,SSE,4.6,-,N/A,,Partly Cloudy,150,2013-10-03 09:54:00
5:54 AM,70.0,64.9,84,30.01,10.0,SSE,6.9,-,N/A,,Clear,160,2013-10-03 10:54:00
6:54 AM,69.1,64.9,87,30.03,10.0,SSE,5.8,-,N/A,,Partly Cloudy,150,2013-10-03 11:54:00
7:54 AM,70.0,64.9,84,30.04,10.0,South,6.9,-,N/A,,Scattered Clouds,170,2013-10-03 12:54:00
8:54 AM,75.0,66.9,76,30.05,10.0,South,9.2,-,N/A,,Scattered Clouds,180,2013-10-03 13:54:00
9:11 AM,73.4,66.2,78,30.06,10.0,South,10.4,-,N/A,,Mostly Cloudy,180,2013-10-03 14:11:00
9:23 AM,75.2,66.2,73,30.06,10.0,South,9.2,-,N/A,,Scattered Clouds,170,2013-10-03 14:23:00
9:54 AM,77.0,68.0,74,30.05,10.0,South,10.4,-,N/A,,Partly Cloudy,180,2013-10-03 14:54:00
10:08 AM,78.8,68.0,69,30.06,10.0,South,10.4,-,N/A,,Mostly Cloudy,180,2013-10-03 15:08:00
10:26 AM,78.8,69.8,74,30.06,10.0,South,11.5,-,N/A,,Scattered Clouds,180,2013-10-03 15:26:00
10:54 AM,81.0,70.0,69,30.04,10.0,South,10.4,18.4,N/A,,Scattered Clouds,180,2013-10-03 15:54:00
11:24 AM,80.6,69.8,70,30.04,10.0,SSW,11.5,21.9,N/A,,Mostly Cloudy,200,2013-10-03 16:24:00
11:49 AM,80.6,69.8,70,30.04,10.0,SSW,11.5,-,N/A,,Scattered Clouds,200,2013-10-03 16:49:00
11:54 AM,81.0,70.0,69,30.03,10.0,SSW,10.4,18.4,N/A,,Scattered Clouds,210,2013-10-03 16:54:00
12:54 PM,84.0,69.1,61,30.01,10.0,South,9.2,-,N/A,,Scattered Clouds,170,2013-10-03 17:54:00
1:27 PM,84.2,68.0,58,30.01,10.0,SSW,6.9,-,N/A,,Mostly Cloudy,200,2013-10-03 18:27:00
1:41 PM,84.2,68.0,58,30.01,10.0,SSW,8.1,-,N/A,,Mostly Cloudy,210,2013-10-03 18:41:00
1:54 PM,84.0,68.0,58,29.99,10.0,South,8.1,-,N/A,,Mostly Cloudy,170,2013-10-03 18:54:00
2:54 PM,87.1,68.0,53,29.97,10.0,SSW,8.1,-,N/A,,Mostly Cloudy,200,2013-10-03 19:54:00
3:54 PM,86.0,66.9,53,29.95,10.0,South,6.9,-,N/A,,Scattered Clouds,180,2013-10-03 20:54:00
4:54 PM,84.0,66.0,55,29.95,10.0,SSE,10.4,-,N/A,,Mostly Cloudy,150,2013-10-03 21:54:00
5:54 PM,84.0,66.9,56,29.95,10.0,SSE,9.2,-,N/A,,Scattered Clouds,160,2013-10-03 22:54:00
6:54 PM,82.0,66.9,60,29.95,10.0,SE,5.8,-,N/A,,Scattered Clouds,140,2013-10-03 23:54:00
7:54 PM,81.0,68.0,65,29.96,10.0,SSE,8.1,-,N/A,,Mostly Cloudy,150,2013-10-04 00:54:00
8:54 PM,79.0,69.1,72,29.98,10.0,SSE,6.9,-,N/A,,Partly Cloudy,160,2013-10-04 01:54:00
9:54 PM,77.0,69.1,76,29.99,10.0,SSE,9.2,-,N/A,,Partly Cloudy,150,2013-10-04 02:54:00
11:54 PM,75.0,69.1,82,30.00,10.0,SSE,8.1,-,N/A,,Clear,160,2013-10-04 04:54:00